Regional Weather Roundup
Issued by NWS

Home | Current Version | Previous Version | Graphics & Text | Print | Product List | Glossary On
Versions: 1 2 3 4 5 6 7 8 9 10 11 12 13 14 15 16 17 18 19 20 21 22 23 24 25 26 27
000
ASUS45 KBOU 200907
RWRCO

WEATHER ROUNDUP FOR COLORADO
NATIONAL WEATHER SERVICE DENVER/BOULDER CO
300 AM MDT SUN AUG 20 2017

NOTE: "FAIR" INDICATES FEW OR NO CLOUDS BELOW 12000 FEET WITH NO
SIGNIFICANT WEATHER AND/OR OBSTRUCTIONS TO VISIBILITY.

COZ001>005-013-030-031-201000-
...NORTHWEST COLORADO...

CITY           SKY/WX    TMP DP  RH WIND       PRES   REMARKS
CRAIG          FAIR      52  38  58 CALM      30.18S
HAYDEN         FAIR      56  34  43 E6        30.22S
MEEKER         FAIR      53  38  56 E3        30.21F
RABBIT EARS PA FAIR      52  32  46 W8        30.49F
STEAMBOAT SPGS FAIR      53  37  54 CALM      30.23S
WALDEN         FAIR      48  34  57 SE7       30.32S
$$

COZ006>008-011-201000-
...WEST CENTRAL VALLEYS...

CITY           SKY/WX    TMP DP  RH WIND       PRES   REMARKS
GRAND JUNCTION FAIR      69  38  32 E6        30.06F
MONTROSE       FAIR      59  39  47 SE7       30.16S
EAGLE          FAIR      53  33  46 CALM      30.26S
RIFLE          FAIR      57  38  48 E3        30.15S
DELTA          FAIR      64  38  37 NE6       30.12S
NUCLA          FAIR      61  34  36 SE9       30.18F
$$

COZ017>023-064>068-201000-
...SOUTHWEST COLORADO...

CITY           SKY/WX    TMP DP  RH WIND       PRES   REMARKS
DURANGO        FAIR      56  36  47 E3        30.22S
CORTEZ         FAIR      60  40  47 CALM      30.14S
PAGOSA SPRINGS FAIR      56  35  45 CALM      30.31F
TELLURIDE      FAIR      53  33  46 SE7       30.41S
WOLF CREEK PAS FAIR      45  36  70 SW10      30.65S
$$

COZ009-010-012-014-032>034-037-058>063-201000-
...CENTRAL COLORADO...

CITY           SKY/WX    TMP DP  RH WIND       PRES   REMARKS
ASPEN          FAIR      52  34  50 SW8       30.30F
BUENA VISTA    FAIR      52  33  47 NW12      30.32F
COPPER MTN     FAIR      54  25  32 CALM      30.61F
BERTHOUD PASS  FAIR      43  37  81 NW6       30.64S
COTTONWOOD PAS FAIR      61  25  25 W9        30.45S
GUNNISON       FAIR      42  37  82 CALM      30.33F
KREMMLING      FAIR      54  37  54 CALM      30.31S
LEADVILLE      FAIR      39  30  70 NE3       30.45F
MONARCH PASS   FAIR      50  23  34 NW7       30.71F
SALIDA         FAIR      57  35  43 NW7       30.37S
SUNLIGHT       FAIR      52  28  40 W3        30.54F
WILKERSON PASS FAIR      52  27  37 W6        30.58S
$$

COZ069>075-201000-
...SAN LUIS VALLEY/SANGRE DE CRISTO MOUNTAINS...

CITY           SKY/WX    TMP DP  RH WIND       PRES   REMARKS
ALAMOSA        FAIR      49  40  71 CALM      30.28S
DEL NORTE      FAIR      55  34  45 W17       30.32S
LA VETA PASS   NOT AVBL
SAGUACHE       FAIR      55  32  41 N12       30.31S
$$

COZ035-036-038>040-201000-
...NORTHERN COLORADO FRONT RANGE...

CITY           SKY/WX    TMP DP  RH WIND       PRES   REMARKS
DENVER INTL AP FAIR      68  40  35 SW12      30.07S
DMNS CITY PARK   N/A     67  40  37 SW3G13    30.06S
AURORA         PTCLDY    63  42  45 S8        30.09S
FRONT RANGE AP FAIR      68  41  37 SW9       30.08S
ERIE MUNI ARPT FAIR      64  41  42 CALM      30.10S
BOULDER MUN AP FAIR      68  36  30 CALM      30.06R
CENTENNIAL     FAIR      62  41  46 S5        30.11S
BROOMFIELD     NOT AVBL
FORT COLLINS   FAIR      63  46  54 N3        30.05S
LONGMONT       FAIR      61  44  53 CALM      30.06S
$$

COZ041-046-047-076>085-087-088-201000-
...PIKES PEAK/PALMER DIVIDE AND SOUTHERN FOOTHILLS...

CITY           SKY/WX    TMP DP  RH WIND       PRES   REMARKS
COLO. SPRINGS  MOCLDY    63  45  51 N9        30.14S
A. F. ACADEMY  FAIR      53  44  69 N8        30.16F
SCHRIEVER AFB  FAIR      67  40  37 NW8       30.13F
CHEYENNE MTN   FAIR      73  34  23 W8        30.14S
ELLICOTT       NOT AVBL
FALCON         FAIR      57  44  61 W12       30.20S
FORT CARSON    FAIR      63  44  48 N12       30.10S
LIMON          FAIR      52  50  93 NW5       30.07S
MONUMENT HILL  FAIR      59  39  47 SW7       30.22S
CANON CITY     CLEAR     72  45  37 W17       30.07F
WALSENBURG     FAIR      70  39  32 SW8       30.12F
TRINIDAD       FAIR      68  44  42 W10       30.09F
$$

COZ042>045-048>051-090-091-201000-
...NORTHEAST COLORADO...

CITY           SKY/WX    TMP DP  RH WIND       PRES   REMARKS
GREELEY ARPT   FAIR      55  49  80 CALM      30.03S
AKRON          FAIR      61  45  55 W10       30.00S
BURLINGTON     FAIR      66  53  63 S13       29.97S
WRAY           NOT AVBL
YUMA           FAIR      61  37  41 W9        29.95S
STERLING       FAIR      59  52  77 CALM      29.95S
HOLYOKE        FAIR      63  55  77 NW6       29.92S
FORT MORGAN    NOT AVBL
$$

COZ086-089-092>099-201000-
...SOUTHEAST COLORADO...

CITY           SKY/WX    TMP DP  RH WIND       PRES   REMARKS
PUEBLO         FAIR      62  50  64 SW6       30.02S
LA JUNTA       FAIR      62  52  69 SE5       29.99S
LAMAR          FAIR      57  53  86 SW5       29.95F
SPRINGFIELD      N/A     61  58  90 S9        30.03S
$$




USA.gov is the U.S. government's official web portal to all federal, state and local government web resources and services.